Location: Niles Junction
(37.5763°N, 121.9714°W)
Time: 12:56:48
(UTC+00:00)

Cosmos 1190 Rocket - Pass Details

Date: 29 October 2020
Orbit: 757 x 779 km, 74.1° (Epoch: 01 December)

Event Time Altitude Azimuth Distance (km) Brightness Sun altitude
Rises 13:46:28 0° 205° (SSW) 3,226 7.1 -9.3°
Reaches altitude 10° 13:48:52 10° 209° (SSW) 2,300 6.3 -8.8°
Maximum altitude 13:54:01 62° 290° (WNW) 859 4.0 -7.8°
Drops below altitude 10° 13:59:12 10° 11° (N) 2,300 6.5 -6.8°
Sets 14:01:36 0° 15° (NNE) 3,227 7.3 -6.4°
